FENGYUN 1C DEB, 30927

Orbit data source: Space-Track

FENGYUN 1C DEB, 30927 is space debris in SSO originally from a launch on Mon, 10 May 1999 UTC launched from the Taiyaun Space Center, China (TSC). Fengyun 1C debris stems from the Chinese weather satellite Fengyun-1C, which was intentionally destroyed by a Chinese anti-satellite missile in 2007. This event dramatically increased the amount of space debris, with thousands of trackable fragments posing hazards to satellites and human spaceflight. The Fengyun 1C debris cloud has become a focal point in discussions about space sustainability and the need for international regulations to prevent the creation of new debris.

Loading next visibility...
Identifier
30927, 1999-025AZR
Orbit
SSO
Country
Flag of CNCN / PRC
Related business
Manufacturer
Unknown
Mission
Spacecraft
Bus & Motor
Unknown
Mass
Unknown
Launch date (UTC)
1999-05-10 (27 years ago)
Launch vehicle
Unknown
Launch site
Taiyaun Space Center, China (TSC)
Object type
Payload
Rocket body
Debris
Shape & HBR
Unknown shape, 0.1 m
Radar Cross Section
Small (<0.1 m²)

Expand to show TLE details & history
Last TLE update: 2 days ago

TLE from 2 days ago
0 FENGYUN 1C DEB
1 30927U 99025AZR 26207.13562417  .00002342  00000-0  12882-2 0  9996
2 30927  99.1706 276.8950 0099412  96.8682 264.3810 14.10180846988592
Epoch: 2026-07-26T03:15Z
TLE epoch observation values (Epoch: 2026-07-26T03:15:17.928Z)
Latitude
0.00004°
Longitude
-75.7676°
Altitude
869.392 km
Speed
7.414 km/s
True Right ascension
18h 27m 34s
True Declination
0° 00' 00"
Sunlit
Object was in full shadow at epoch
Visualization orbit readout
Latitude
Unknown
Longitude
Unknown
Altitude
Unknown
Speed
Unknown
Apparent Right ascension
Unknown
Apparent Declination
Unknown
Sunlit
N/A
Visualization observer readout
Local Sidereal Time
02:15:00
Azimuth
Unknown
Elevation
Unknown
Doppler factor
Unknown
Orbital elements
Apogee altitude
927.862 km
Perigee altitude
784.031 km
Semi-major axis
7,234.084 km
Eccentricity
0.00994
Inclination
99.1706°
RAAN
276.895°
Arg. of periapsis
96.8682°
True anomaly
263.24875°
Mean anomaly
264.381°
Eccentric anomaly
263.81473°
Mean motion
3.52751 °/min
Orbital period
102.06 mins
BSTAR
0.0012882
Loading maneuver chart data...
Computing Atmospheric mass density...

Documentation

Showing up to 5 results
|